User: anonymous   Login
Location: Unspecified
(0.0000°N, 0.0000°E)
Time: 05:44:12
(UTC+00:00)
Language:

ARISSat-1 - Orbit

View from above orbital plane
View from above orbital plane
View from above satellite
View from above satellite

Ground track
Ground track

The orbit is defined by the following mean orbital elements,

1 37772U 98067CK  12004.04884568  .13494171  12416-4  77857-3 0  9991
2 37772 051.6129 213.1240 0007478 255.9283 104.1611 16.41716225 24077
Epoch (UTC): 04 January 2012 01:10:20
Eccentricity: 0.0007478
inclination: 51.6129°
perigee height: 156 km
apogee height: 166 km
right ascension of ascending node: 213.1240°
argument of perigee: 255.9283°
revolutions per day: 16.41716225
mean anomaly at epoch: 104.1611°

The dashed part of the orbit path shows where the satellite is in the earth's shadow,  

DLR